{"data":{"norad_id":61902,"intl_designator":"2024-205J","name":"2024-205J","alt_names":[],"object_type":"PAYLOAD","status":"ACTIVE","operator":null,"country":"PRC","launch_date":"2024-11-11","launch_site_code":"JSC","launch_vehicle":null,"mission":null,"orbit_class":"UNKNOWN","rcs_meters":null,"size_class":null,"mass_kg":null,"dimensions":null,"purposes":[],"wikipedia_slug":null,"has_3d_model":false,"image_url":null,"decayed_at":null,"tle_current":{"epoch":"2026-09-22T23:39:58.195008Z","epoch_age_seconds":88033,"freshness":"FRESH","line1":"1 61902U 24205J   26265.98609022  .00004696  00000+0  26770-3 0  9997","line2":"2 61902  97.4059 333.5628 0013004 184.8138 175.2970 15.13191123102972","mean_motion":15.13191123,"eccentricity":0.0013004,"inclination_deg":97.4059,"raan_deg":333.5628,"arg_perigee_deg":184.8138,"mean_anomaly_deg":175.297,"bstar":0.0002677,"rev_number":10297,"period_min":95.163127652051,"perigee_km":517.49686742238,"apogee_km":535.45438393925,"semimajor_km":6904.6126256808,"source":"CELESTRAK","updated_at":"2026-09-23T09:00:21.098957Z"}}}